TELSTAR 12V

Last updated on Sat Apr 26 2025 00:02:42 GMT+0000 (Coordinated Universal Time)

1 41036U 15068A 25115.38478566 -.00000116 00000+0 00000+0 0 9992 2 41036 0.0119 234.0628 0002595 146.0761 317.0186 1.00270447 34433
UTC large
Height (km)
Speed (km/s)
/
Latitude / Longitude
Inclination (degrees)
Orbital Period (minutes)
Azimuth
Elevation
Range (km)
Doppler Factor

Next 0 passes for location: London (51.5072 / 0.1276)

Sorry there are no passes over London.